• In United Kingdom
  • List of Countries
  • For 7 days
  • Water Temperature
  • Satellite Maps
  • Weather Map
  • Weather Widgets
  • user-avatar
    Login

    Hourly Weather Asadabad

    Today, 24 September, Monday

    Time Temperature Precipitation Wind Pressure Humidity
    00:00 +19°C° 0.6 mm 0 mps 658 mmHg 69%
    01:00 +20°C° 0.6 mm 1 mps 658 mmHg 71%
    02:00 +20°C° 0.6 mm 1 mps 658 mmHg 73%
    03:00 +19°C° 0.3 mm 1 mps 657 mmHg 75%
    04:00 +17°C° 0.3 mm 0 mps 657 mmHg 76%
    05:00 +17°C° 0 mm 0 mps 657 mmHg 79%
    06:00 +18°C° 0.2 mm 0 mps 657 mmHg 74%
    07:00 +19°C° 0.2 mm 0 mps 658 mmHg 68%
    08:00 +21°C° 0.2 mm 0 mps 658 mmHg 62%
    09:00 +24°C° 0 mm 1 mps 658 mmHg 56%
    10:00 +25°C° 0 mm 2 mps 658 mmHg 51%
    11:00 +27°C° 0 mm 2 mps 659 mmHg 45%
    12:00 +27°C° 0.1 mm 2 mps 658 mmHg 43%
    13:00 +28°C° 0.1 mm 2 mps 658 mmHg 40%
    14:00 +29°C° 0.1 mm 3 mps 658 mmHg 37%
    15:00 +29°C° 0.1 mm 3 mps 658 mmHg 38%
    16:00 +28°C° 0.1 mm 3 mps 657 mmHg 39%
    17:00 +28°C° 0.1 mm 2 mps 657 mmHg 39%
    18:00 +26°C° 0.1 mm 2 mps 657 mmHg 46%
    19:00 +25°C° 0.1 mm 1 mps 657 mmHg 52%
    20:00 +21°C° 0.1 mm 0 mps 657 mmHg 59%
    21:00 +22°C° 0.3 mm 1 mps 657 mmHg 60%
    22:00 +22°C° 0.3 mm 1 mps 657 mmHg 61%
    23:00 +21°C° 0.3 mm 1 mps 657 mmHg 62%

    Tomorrow, 25 September, Tuesday

    Time Temperature Precipitation Wind Pressure Humidity
    00:00 +21°C° 0.2 mm 1 mps 657 mmHg 62%
    01:00 +21°C° 0.2 mm 1 mps 657 mmHg 62%
    02:00 +20°C° 0.2 mm 1 mps 656 mmHg 63%
    03:00 +20°C° 0 mm 1 mps 656 mmHg 61%
    04:00 +20°C° 0 mm 1 mps 656 mmHg 60%
    05:00 +19°C° 0 mm 1 mps 656 mmHg 58%
    06:00 +21°C° 0 mm 1 mps 657 mmHg 52%
    07:00 +23°C° 0 mm 1 mps 657 mmHg 46%
    08:00 +24°C° 0 mm 1 mps 658 mmHg 39%
    09:00 +25°C° 0 mm 1 mps 658 mmHg 36%
    10:00 +27°C° 0 mm 2 mps 658 mmHg 33%
    11:00 +28°C° 0 mm 2 mps 658 mmHg 30%
    12:00 +28°C° 0 mm 2 mps 658 mmHg 29%
    13:00 +29°C° 0 mm 2 mps 658 mmHg 29%
    14:00 +30°C° 0 mm 3 mps 658 mmHg 28%
    15:00 +29°C° 0.1 mm 3 mps 658 mmHg 29%
    16:00 +29°C° 0.1 mm 2 mps 657 mmHg 30%
    17:00 +28°C° 0.1 mm 2 mps 657 mmHg 31%
    18:00 +27°C° 0.1 mm 2 mps 657 mmHg 37%
    19:00 +25°C° 0.1 mm 1 mps 657 mmHg 42%
    20:00 +21°C° 0.1 mm 0 mps 657 mmHg 48%
    21:00 +22°C° 0 mm 1 mps 657 mmHg 48%
    22:00 +22°C° 0 mm 1 mps 657 mmHg 48%
    23:00 +21°C° 0 mm 1 mps 657 mmHg 48%

    Day after tomorrow, 26 September, Wednesday

    Time Temperature Precipitation Wind Pressure Humidity
    00:00 +21°C° 0 mm 1 mps 657 mmHg 47%
    01:00 +21°C° 0 mm 1 mps 657 mmHg 46%
    02:00 +20°C° 0 mm 1 mps 656 mmHg 45%
    03:00 +20°C° 0 mm 1 mps 656 mmHg 44%
    04:00 +19°C° 0 mm 2 mps 656 mmHg 42%
    05:00 +19°C° 0 mm 2 mps 656 mmHg 41%
    06:00 +20°C° 0 mm 2 mps 657 mmHg 37%
    07:00 +23°C° 0 mm 1 mps 657 mmHg 33%
    08:00 +24°C° 0 mm 1 mps 658 mmHg 29%
    09:00 +26°C° 0 mm 1 mps 658 mmHg 27%
    10:00 +27°C° 0 mm 2 mps 658 mmHg 25%
    11:00 +28°C° 0 mm 2 mps 659 mmHg 22%
    12:00 +29°C° 0 mm 2 mps 658 mmHg 22%
    13:00 +29°C° 0 mm 2 mps 658 mmHg 22%
    14:00 +30°C° 0 mm 3 mps 658 mmHg 22%
    15:00 +30°C° 0.1 mm 2 mps 658 mmHg 23%
    16:00 +29°C° 0.1 mm 2 mps 658 mmHg 24%
    17:00 +29°C° 0.1 mm 2 mps 658 mmHg 25%
    18:00 +27°C° 0 mm 2 mps 658 mmHg 29%
    19:00 +25°C° 0 mm 1 mps 658 mmHg 34%
    20:00 +23°C° 0 mm 1 mps 658 mmHg 38%
    21:00 +23°C° 0.2 mm 1 mps 658 mmHg 37%
    22:00 +23°C° 0.2 mm 1 mps 658 mmHg 37%
    23:00 +21°C° 0.2 mm 2 mps 658 mmHg 36%

    27 September, Thursday

    Time Temperature Precipitation Wind Pressure Humidity
    00:00 +21°C° 0.1 mm 2 mps 658 mmHg 35%
    01:00 +21°C° 0.1 mm 2 mps 658 mmHg 35%
    02:00 +20°C° 0.1 mm 2 mps 657 mmHg 34%
    03:00 +20°C° 0 mm 2 mps 657 mmHg 34%
    04:00 +20°C° 0 mm 2 mps 657 mmHg 34%
    05:00 +19°C° 0 mm 2 mps 657 mmHg 34%
    06:00 +21°C° 0 mm 2 mps 657 mmHg 32%
    07:00 +23°C° 0 mm 2 mps 658 mmHg 30%
    08:00 +24°C° 0 mm 2 mps 659 mmHg 28%
    09:00 +26°C° 0 mm 2 mps 659 mmHg 25%
    10:00 +27°C° 0 mm 2 mps 659 mmHg 22%
    11:00 +28°C° 0 mm 2 mps 659 mmHg 20%
    12:00 +29°C° 0.1 mm 2 mps 659 mmHg 19%
    13:00 +29°C° 0.1 mm 3 mps 659 mmHg 19%
    14:00 +30°C° 0.1 mm 3 mps 658 mmHg 19%
    15:00 +29°C° 0.1 mm 3 mps 658 mmHg 20%
    16:00 +29°C° 0.1 mm 2 mps 658 mmHg 21%
    17:00 +28°C° 0.1 mm 2 mps 658 mmHg 23%
    18:00 +26°C° 0.1 mm 2 mps 658 mmHg 27%
    19:00 +25°C° 0.1 mm 1 mps 659 mmHg 31%
    20:00 +23°C° 0.1 mm 1 mps 659 mmHg 35%
    21:00 +22°C° 0.1 mm 1 mps 659 mmHg 35%
    22:00 +22°C° 0.1 mm 1 mps 659 mmHg 35%
    23:00 +21°C° 0.1 mm 2 mps 659 mmHg 35%

    28 September, Friday

    Time Temperature Precipitation Wind Pressure Humidity
    00:00 +20°C° 0 mm 2 mps 658 mmHg 36%
    01:00 +20°C° 0 mm 2 mps 658 mmHg 37%
    02:00 +19°C° 0 mm 2 mps 658 mmHg 38%
    03:00 +19°C° 0 mm 2 mps 658 mmHg 39%
    04:00 +19°C° 0 mm 2 mps 658 mmHg 39%
    05:00 +18°C° 0 mm 2 mps 657 mmHg 39%
    06:00 +20°C° 0 mm 2 mps 658 mmHg 36%
    07:00 +21°C° 0 mm 2 mps 659 mmHg 34%
    08:00 +24°C° 0 mm 2 mps 659 mmHg 31%
    09:00 +25°C° 0 mm 2 mps 659 mmHg 29%
    10:00 +26°C° 0 mm 2 mps 660 mmHg 26%
    11:00 +28°C° 0 mm 2 mps 660 mmHg 23%
    12:00 +28°C° 0 mm 2 mps 660 mmHg 23%
    13:00 +29°C° 0 mm 2 mps 659 mmHg 23%
    14:00 +29°C° 0 mm 3 mps 659 mmHg 22%
    15:00 +29°C° 0.1 mm 2 mps 659 mmHg 24%
    16:00 +28°C° 0.1 mm 2 mps 659 mmHg 25%
    17:00 +28°C° 0.1 mm 2 mps 659 mmHg 26%
    18:00 +26°C° 0 mm 1 mps 659 mmHg 30%
    19:00 +24°C° 0 mm 1 mps 659 mmHg 34%
    20:00 +22°C° 0 mm 1 mps 659 mmHg 39%
    21:00 +22°C° 0 mm 1 mps 659 mmHg 38%
    22:00 +21°C° 0 mm 2 mps 659 mmHg 37%
    23:00 +20°C° 0 mm 2 mps 659 mmHg 36%

    29 September, Saturday

    Time Temperature Precipitation Wind Pressure Humidity
    00:00 +20°C° 0 mm 2 mps 659 mmHg 36%
    01:00 +20°C° 0 mm 2 mps 659 mmHg 36%
    02:00 +19°C° 0 mm 2 mps 658 mmHg 36%
    03:00 +19°C° 0 mm 2 mps 658 mmHg 35%
    04:00 +19°C° 0 mm 2 mps 658 mmHg 34%
    05:00 +18°C° 0 mm 2 mps 658 mmHg 33%
    06:00 +20°C° 0 mm 2 mps 659 mmHg 31%
    07:00 +21°C° 0 mm 2 mps 660 mmHg 29%
    08:00 +24°C° 0 mm 2 mps 660 mmHg 27%
    09:00 +25°C° 0 mm 2 mps 660 mmHg 25%
    10:00 +26°C° 0 mm 2 mps 661 mmHg 23%
    11:00 +28°C° 0 mm 2 mps 661 mmHg 22%
    12:00 +28°C° 0 mm 2 mps 660 mmHg 21%
    13:00 +29°C° 0 mm 2 mps 660 mmHg 21%
    14:00 +29°C° 0 mm 3 mps 660 mmHg 21%
    15:00 +29°C° 0.1 mm 2 mps 660 mmHg 22%
    16:00 +28°C° 0.1 mm 2 mps 660 mmHg 23%
    17:00 +28°C° 0.1 mm 2 mps 660 mmHg 24%
    18:00 +26°C° 0.1 mm 1 mps 659 mmHg 28%
    19:00 +24°C° 0.1 mm 1 mps 659 mmHg 32%
    20:00 +22°C° 0.1 mm 1 mps 659 mmHg 36%
    21:00 +22°C° 0 mm 1 mps 659 mmHg 36%
    22:00 +21°C° 0 mm 1 mps 659 mmHg 36%
    23:00 +21°C° 0 mm 1 mps 659 mmHg 35%
    Show more